Kaneohe MCBH, HI

3:46 AM HST on August 19, 2017 (GMT -1000)
Kaneohe Bay Marine Corps Air Facility

Weather History for PHNG - December, 2012

Change the Weather History Date:

Thursday, December 13, 2012

  Actual Average Record
Temperature  
Mean Temperature 78 °F -  
Max Temperature 82 °F 76 °F 82 °F (2012)
Min Temperature 73 °F 68 °F 63 °F (1996)
Cooling Degree Days 12    
Growing Degree Days 28 (Base 50)    
Moisture  
Dew Point 66 °F    
Average Humidity 71    
Maximum Humidity 91    
Minimum Humidity 57    
Precipitation  
Precipitation 0.00 in - - ()
Sea Level Pressure  
Sea Level Pressure 30.13 in    
Wind  
Wind Speed 13 mph (ENE)    
Max Wind Speed 20 mph    
Max Gust Speed 32 mph    
Visibility 9 miles    
Events Rain    
Averages and records for this station are not official NWS values.
T = Trace of Precipitation, MM = Missing Value Source: NWS Daily Summary

Daily Weather History Graph

Daily Weather History Graph

Search for Another Location

Airport or City:

Trip Planner

Search our weather history database for the weather conditions in past years. The results will help you decide how hot, cold, wet, or windy it might be!

Date:

Astronomy

Dec. 13, 2012 Rise Set
Actual Time 7:00 AM HST 5:50 PM HST
Civil Twilight 6:36 AM HST 6:15 PM HST
Nautical Twilight 6:08 AM HST 6:42 PM HST
Astronomical Twilight 5:41 AM HST 7:10 PM HST
Moon 7:22 AM HST (12/13) 6:42 PM HST (12/13)
Length of Visible Light 11h 39m
Length of Day
10h 50m
New Moon, 0% of the Moon is Illuminated
Dec 13
New Moon
Dec 19
First Quarter
Dec 28
Full
Jan 4
Last Quarter
Jan 11
New

Hourly Weather History & Observations

Time (HST) Temp. Heat Index Dew Point Humidity Pressure Visibility Wind Dir Wind Speed Gust Speed Precip Events Conditions
12:57 AM 73.6 °F - 70.0 °F 88% 30.13 in 10.0 mi ENE 11.5 mph 23.0 mph N/A   Overcast
1:57 AM 73.4 °F - 70.5 °F 91% 30.14 in 10.0 mi ENE 10.4 mph 19.6 mph N/A   Mostly Cloudy
2:57 AM 73.4 °F - 64.4 °F 73% 30.12 in 10.0 mi East 16.1 mph 32.2 mph N/A   Mostly Cloudy
3:57 AM 73.4 °F - 65.1 °F 75% 30.12 in 10.0 mi East 11.5 mph 20.7 mph 0.00 in   Mostly Cloudy
4:57 AM 73.4 °F - 64.4 °F 73% 30.12 in 10.0 mi ENE 10.4 mph - 0.00 in Rain Light Rain
5:57 AM 73.4 °F - 64.8 °F 74% 30.11 in 10.0 mi East 11.5 mph 16.1 mph 0.00 in   Mostly Cloudy
6:57 AM 73.4 °F - 66.0 °F 78% 30.12 in 10.0 mi East 15.0 mph 23.0 mph 0.00 in   Partly Cloudy
7:57 AM 73.4 °F - 66.9 °F 80% 30.14 in 10.0 mi East 11.5 mph 20.7 mph 0.00 in   Mostly Cloudy
8:27 AM 73.4 °F - 64.4 °F 73% 30.15 in 6.2 mi ENE 11.5 mph 20.7 mph 0.00 in   Mostly Cloudy
8:57 AM 74.1 °F - 64.9 °F 73% 30.15 in 10.0 mi ENE 15.0 mph 24.2 mph 0.00 in   Mostly Cloudy
9:17 AM 75.2 °F - 68.0 °F 78% 30.16 in 6.2 mi ENE 11.5 mph 21.9 mph N/A   Mostly Cloudy
9:46 AM 75.2 °F - 68.0 °F 78% 30.17 in 6.2 mi East 11.5 mph 19.6 mph 0.00 in   Overcast
9:57 AM 75.2 °F - 68.0 °F 78% 30.15 in 10.0 mi East 12.7 mph 25.3 mph 0.00 in   Overcast
10:57 AM 77.0 °F - 69.1 °F 76% 30.13 in 10.0 mi East 17.3 mph 27.6 mph 0.00 in Rain Light Rain
11:39 AM 78.8 °F - 66.2 °F 65% 30.13 in 6.2 mi ENE 15.0 mph 27.6 mph 0.00 in   Overcast
11:57 AM 78.8 °F - 66.9 °F 67% 30.11 in 10.0 mi East 15.0 mph 29.9 mph 0.00 in   Mostly Cloudy
12:18 PM 80.6 °F 82.7 °F 66.2 °F 61% 30.12 in 6.2 mi East 13.8 mph 25.3 mph N/A   Overcast
12:48 PM 80.6 °F 82.7 °F 66.2 °F 61% 30.11 in 10.0 mi East 13.8 mph 24.2 mph 0.00 in Rain Light Rain
12:57 PM 80.6 °F 82.7 °F 66.0 °F 61% 30.09 in 10.0 mi East 15.0 mph 27.6 mph 0.00 in Rain Light Rain
1:12 PM 82.4 °F 84.6 °F 66.2 °F 58% 30.10 in 6.2 mi East 17.3 mph 29.9 mph 0.00 in   Overcast
1:23 PM 82.4 °F 84.6 °F 66.2 °F 58% 30.10 in 6.2 mi East 12.7 mph 27.6 mph 0.00 in Rain Light Rain
2:29 PM 82.4 °F 84.6 °F 66.2 °F 58% 30.08 in 6.2 mi ENE 11.5 mph 20.7 mph N/A   Overcast
2:57 PM 82.4 °F 84.4 °F 66.0 °F 57% 30.07 in 10.0 mi ENE 15.0 mph 25.3 mph N/A   Mostly Cloudy
3:57 PM 82.4 °F 84.4 °F 66.0 °F 57% 30.07 in 10.0 mi ENE 16.1 mph 23.0 mph N/A   Mostly Cloudy
4:57 PM 82.4 °F 84.4 °F 66.0 °F 57% 30.08 in 10.0 mi East 18.4 mph 24.2 mph N/A   Mostly Cloudy
5:57 PM 75.2 °F - 64.0 °F 68% 30.10 in 10.0 mi ENE 19.6 mph 26.5 mph N/A   Overcast
6:57 PM 75.2 °F - 64.0 °F 68% 30.12 in 10.0 mi ENE 12.7 mph 21.9 mph N/A   Mostly Cloudy
7:57 PM 75.2 °F - 64.9 °F 70% 30.14 in 10.0 mi East 16.1 mph 24.2 mph 0.00 in   Mostly Cloudy
8:57 PM 75.2 °F - 66.9 °F 75% 30.14 in 10.0 mi ENE 9.2 mph 17.3 mph N/A   Mostly Cloudy
9:57 PM 73.4 °F - 69.1 °F 86% 30.15 in 10.0 mi ENE 9.2 mph 19.6 mph N/A   Mostly Cloudy
10:17 PM - - - N/A% 30.17 in 6.2 mi ENE 13.8 mph 23.0 mph 0.00 in   Overcast
10:31 PM - - - N/A% 30.18 in 6.2 mi East 15.0 mph 26.5 mph 0.00 in   Mostly Cloudy
10:57 PM 73.4 °F - 69.1 °F 86% 30.17 in 10.0 mi East 10.4 mph 26.5 mph 0.00 in Rain Light Rain
11:57 PM - - - N/A% 30.16 in 10.0 mi ENE 13.8 mph 29.9 mph 0.00 in   Mostly Cloudy